User: anonymous   Login
Location: Voyageurs National Park
(48.5020°N, 92.9292°W)
Time: 07:02:46
(UTC-05:00)
Language:

Terra - Orbit

View from above orbital plane
View from above orbital plane
View from above satellite
View from above satellite

Ground track
Ground track

The orbit data is extracted from the following two-line orbital elements,

1 25994U 99068A   14304.13632290 -.00000498  00000-0 -10044-3 0  7767
2 25994 098.2027 016.9102 0001324 081.2934 278.8397 14.57131977790864
Epoch (UTC): 31 October 2014 03:16:18
Eccentricity: 0.0001324
inclination: 98.2027°
perigee height: 701 km
apogee height: 703 km
right ascension of ascending node: 16.9102°
argument of perigee: 81.2934°
revolutions per day: 14.57131977
mean anomaly at epoch: 278.8397°
orbit number at epoch: 79086

The dashed part of the orbit path shows where the satellite is in the earth's shadow,  

DLR